TimePDT,TemperatureF,Dew PointF,Humidity,Sea Level PressureIn,VisibilityMPH,Wind Direction,Wind SpeedMPH,Gust SpeedMPH,PrecipitationIn,Events,Conditions,WindDirDegrees,DateUTC
12:52 AM,51.1,39.9,66,30.01,10.0,North,6.9,-,N/A,,Clear,10,2013-06-15 07:52:00
1:52 AM,50.0,39.0,66,30.01,10.0,North,5.8,-,N/A,,Clear,10,2013-06-15 08:52:00
2:52 AM,48.9,37.9,66,30.00,10.0,NE,5.8,-,N/A,,Clear,40,2013-06-15 09:52:00
3:52 AM,48.0,37.0,66,30.00,10.0,North,6.9,-,N/A,,Clear,10,2013-06-15 10:52:00
4:52 AM,46.9,36.0,66,30.01,10.0,North,6.9,-,N/A,,Clear,10,2013-06-15 11:52:00
5:52 AM,48.0,36.0,63,30.01,10.0,North,6.9,-,N/A,,Clear,350,2013-06-15 12:52:00
6:52 AM,53.1,37.0,55,30.01,10.0,North,11.5,-,N/A,,Clear,10,2013-06-15 13:52:00
7:52 AM,60.1,37.9,44,30.01,10.0,North,4.6,-,N/A,,Clear,10,2013-06-15 14:52:00
8:52 AM,64.9,39.9,40,30.01,10.0,NNW,4.6,-,N/A,,Clear,340,2013-06-15 15:52:00
9:52 AM,72.0,39.9,31,29.99,10.0,Calm,Calm,-,N/A,,Clear,0,2013-06-15 16:52:00
10:52 AM,77.0,39.0,25,29.97,10.0,ESE,5.8,-,N/A,,Clear,110,2013-06-15 17:52:00
11:52 AM,77.0,37.0,24,29.97,10.0,Calm,Calm,-,N/A,,Clear,0,2013-06-15 18:52:00
12:52 PM,80.1,36.0,20,29.96,10.0,SSE,6.9,-,N/A,,Clear,150,2013-06-15 19:52:00
1:52 PM,82.9,34.0,17,29.94,10.0,ENE,8.1,-,N/A,,Clear,60,2013-06-15 20:52:00
2:52 PM,84.9,34.0,16,29.93,10.0,ENE,5.8,-,N/A,,Clear,60,2013-06-15 21:52:00
3:52 PM,84.0,35.1,17,29.91,10.0,SSE,8.1,-,N/A,,Clear,150,2013-06-15 22:52:00
4:52 PM,84.0,34.0,17,29.91,10.0,SSW,5.8,-,N/A,,Clear,200,2013-06-15 23:52:00
5:52 PM,82.0,34.0,18,29.90,10.0,SSE,5.8,-,N/A,,Clear,160,2013-06-16 00:52:00
6:52 PM,82.0,35.1,18,29.90,10.0,SSW,5.8,-,N/A,,Clear,210,2013-06-16 01:52:00
7:52 PM,81.0,34.0,18,29.89,10.0,Calm,Calm,-,N/A,,Clear,0,2013-06-16 02:52:00
8:52 PM,75.9,37.9,25,29.90,10.0,WNW,6.9,-,N/A,,Clear,300,2013-06-16 03:52:00
9:52 PM,70.0,37.9,31,29.92,10.0,North,5.8,-,N/A,,Clear,360,2013-06-16 04:52:00
10:52 PM,69.1,37.0,31,29.92,10.0,NE,6.9,-,N/A,,Clear,40,2013-06-16 05:52:00
11:52 PM,63.0,37.0,38,29.94,10.0,North,5.8,-,N/A,,Clear,360,2013-06-16 06:52:00